Regional Weather Roundup
Issued by NWS Kansas City/Pleasant Hill, MO

Home | Current Version | Previous Version | Text Only | Print | Product List | Glossary On
Versions: 1 2 3 4 5 6 7 8 9 10 11 12 13 14 15 16 17 18 19 20 21 22 23 24 25 26 27 28 29 30 31 32 33 34 35 36 37 38 39 40 41 42 43 44 45 46 47 48 49 50
000
ASUS43 KEAX 250604
RWREAX

WEATHER ROUNDUP FOR EASTERN KANSAS AND NORTHWEST MISSOURI
NATIONAL WEATHER SERVICE KANSAS CITY/PLEASANT HILL MO
1200 AM CST SUN JAN 25 2015

KSZ040-057-103>105-MOZ028-029-037-043-250700-
...KANSAS CITY METROPOLITAN AREA...

CITY           SKY/WX    TMP DP  RH WIND       PRES   REMARKS
K.C. INTL      DRIZZLE   44  42  93 SW9       29.65F
6HR MIN TEMP:  44; 6HR MAX TEMP:  51; 6HR PCP:  0.06;

K.C. DOWNTOWN  LGT RAIN  47  43  86 SW7       29.66F
6HR MIN TEMP:  46; 6HR MAX TEMP:  56; 6HR PCP:  0.01;

LEES SUMMIT    CLOUDY    45  43  93 SW8       29.67F
6HR MIN TEMP:  45; 6HR MAX TEMP:  55; 6HR PCP:  0.03;

OLATHE - IXD   CLOUDY    46  42  86 W10       29.69F
6HR MIN TEMP:  45; 6HR MAX TEMP:  54; 6HR PCP:  0.06;

OLATHE - OJC   CLOUDY    46  43  89 W10       29.68F
6HR MIN TEMP:  45; 6HR MAX TEMP:  54; 6HR PCP:  0.06;

LAWRENCE       CLOUDY    47  41  80 W9        29.70S

$$

MOZ001>008-011>017-020>025-030>033-038>040-044>046-053-054-250700-
...NORTHERN AND CENTRAL MISSOURI...

CITY           SKY/WX    TMP DP  RH WIND       PRES   REMARKS
ST. JOSEPH     CLOUDY    45  41  86 W13       29.64F
6HR MIN TEMP:  42; 6HR MAX TEMP:  50; 6HR PCP:  0.03;

MOSBY          DRIZZLE   45  43  93 SW5       29.66F
WARRENSBURG    DRIZZLE   45  43  93 SW9       29.68F
WHITEMAN AFB   LGT RAIN  46  44  91 SW8       29.68F
6HR MIN TEMP:  46; 6HR MAX TEMP:  53; 6HR PCP:  0.01;

CLINTON        LGT RAIN  46  45  93 W13       29.73F
SEDALIA        LGT RAIN  49  43  80 W10       29.69F
6HR MIN TEMP:  49; 6HR MAX TEMP:  52; 6HR PCP: TRACE;

WARSAW         NOT AVBL
MARSHALL       CLOUDY    52  36  54 W13       29.68S
CHILLICOTHE      N/A     47  39  74 VRB6      29.64F
6HR MIN TEMP:  45; 6HR MAX TEMP:  53;

MOBERLY        CLOUDY    48  32  53 SW13G18   29.64F
KIRKSVILLE     CLOUDY    46  30  53 SW5       29.61F
6HR MIN TEMP:  45; 6HR MAX TEMP:  50;


$$

MOZ041-047>049-056>058-063>065-088>090-097-250700-
...EASTERN AND SOUTHERN MISSOURI...

CITY           SKY/WX    TMP DP  RH WIND       PRES   REMARKS
ST. LOUIS INTL CLOUDY    51  31  46 SW12      29.68F
6HR MIN TEMP:  48; 6HR MAX TEMP:  52;

SPIRIT OF STL  CLOUDY    50  32  50 SW13      29.67F
COLUMBIA       CLOUDY    50  33  52 W13       29.66F
JEFFERSON CITY CLOUDY    52  32  46 SW14      29.68F
MEXICO         CLOUDY    46  37  71 SW10      29.65F
HANNIBAL       CLOUDY    46  30  53 SW6       29.62F
ROLLA          CLOUDY    49  31  49 SW15      29.70S
LEBANON        CLOUDY    50  32  50 SW14      29.73F
OSAGE BEACH    CLOUDY    52  30  43 W12G20    29.71F
SPRINGFIELD    CLOUDY    50  31  48 SW14      29.75F
NEVADA         RAIN      48  36  61 CALM      29.77S
JOPLIN         CLOUDY    51  32  48 SW14      29.77F
WEST PLAINS    CLOUDY    47  30  51 SW9       29.79F

$$

IAZ060-094-KSZ022-034>040-054-083-096-NEZ052-066-093-250700-
...KANSAS...SOUTHEAST NEBRASKA AND IOWA...

CITY           SKY/WX    TMP DP  RH WIND       PRES   REMARKS
TOPEKA         CLOUDY    47  40  76 W5        29.70F
6HR MIN TEMP:  47; 6HR MAX TEMP:  56; 6HR PCP: TRACE;

MANHATTAN      CLOUDY    49  38  65 W10G18    29.73R
EMPORIA        CLOUDY    46  39  76 W10       29.73S
CHANUTE        CLOUDY    50  36  58 SW6       29.75F
WICHITA        CLOUDY    54  34  46 NW17      29.82R
OMAHA          CLOUDY    45  38  76 NW18      29.61R
LINCOLN        MOCLDY    46  38  73 NW15G25   29.67S
FALLS CITY     LGT RAIN  46  42  86 W10       29.65S
LAMONI         LGT RAIN  42  39  89 SW12      29.58F
DES MOINES     LGT RAIN  41  36  82 S7        29.56F

$$



USA.gov is the U.S. government's official web portal to all federal, state and local government web resources and services.